Time,TemperatureF,DewpointF,PressureIn,WindDirection,WindDirectionDegrees,WindSpeedMPH,WindSpeedGustMPH,Humidity,HourlyPrecipIn,Conditions,Clouds,dailyrainin,SoftwareType,DateUTC
2013-05-02 00:01:00,22.0,8.0,-100.00,East,90,1.0,6.0,54,0.00,,,-99.99,,2013-05-02 06:01:00,
2013-05-02 00:12:00,22.0,9.0,-100.00,ESE,110,2.0,4.0,56,0.00,,,-99.99,,2013-05-02 06:12:00,
2013-05-02 00:21:00,22.0,9.0,-100.00,East,95,1.0,7.0,58,0.00,,,-99.99,,2013-05-02 06:21:00,
2013-05-02 00:32:00,22.0,9.0,-100.00,East,90,1.0,6.0,58,0.00,,,-99.99,,2013-05-02 06:32:00,
2013-05-02 00:42:00,21.0,10.0,-100.00,WSW,250,1.0,7.0,60,0.00,,,-99.99,,2013-05-02 06:42:00,
2013-05-02 00:52:00,21.0,10.0,-100.00,South,180,1.0,5.0,60,0.00,,,-99.99,,2013-05-02 06:52:00,
2013-05-02 01:02:00,21.0,10.0,-100.00,WNW,285,2.0,7.0,60,0.00,,,-99.99,,2013-05-02 07:02:00,
2013-05-02 01:11:00,21.0,10.0,-100.00,West,275,2.0,7.0,61,0.00,,,-99.99,,2013-05-02 07:11:00,
2013-05-02 01:21:00,20.0,10.0,-100.00,SW,225,1.0,2.0,61,0.00,,,-99.99,,2013-05-02 07:21:00,
2013-05-02 01:32:00,20.0,9.0,-100.00,NW,305,1.0,3.0,62,0.00,,,-99.99,,2013-05-02 07:32:00,
2013-05-02 01:42:00,20.0,9.0,-100.00,SSE,165,2.0,4.0,62,0.00,,,-99.99,,2013-05-02 07:42:00,
2013-05-02 01:52:00,19.0,9.0,-100.00,WNW,300,1.0,4.0,62,0.00,,,-99.99,,2013-05-02 07:52:00,
2013-05-02 02:02:00,19.0,9.0,-100.00,West,270,0.0,4.0,63,0.00,,,-99.99,,2013-05-02 08:02:00,
2013-05-02 02:11:00,19.0,9.0,-100.00,West,270,1.0,2.0,63,0.00,,,-99.99,,2013-05-02 08:11:00,
2013-05-02 02:22:00,19.0,9.0,-100.00,West,275,1.0,2.0,64,0.00,,,-99.99,,2013-05-02 08:22:00,
2013-05-02 02:32:00,18.0,9.0,-100.00,NW,305,0.0,2.0,65,0.00,,,-99.99,,2013-05-02 08:32:00,
2013-05-02 02:42:00,18.0,9.0,-100.00,NE,55,0.0,1.0,65,0.00,,,-99.99,,2013-05-02 08:42:00,
2013-05-02 02:52:00,18.0,9.0,-100.00,NW,305,0.0,3.0,67,0.00,,,-99.99,,2013-05-02 08:52:00,
2013-05-02 03:02:00,18.0,9.0,-100.00,SSW,205,1.0,4.0,67,0.00,,,-99.99,,2013-05-02 09:02:00,
2013-05-02 03:12:00,18.0,9.0,-100.00,WNW,285,1.0,3.0,68,0.00,,,-99.99,,2013-05-02 09:12:00,
2013-05-02 03:21:00,18.0,10.0,-100.00,NNE,30,3.0,6.0,69,0.00,,,-99.99,,2013-05-02 09:21:00,
2013-05-02 03:32:00,18.0,10.0,-100.00,West,275,1.0,5.0,69,0.00,,,-99.99,,2013-05-02 09:32:00,
2013-05-02 03:42:00,17.0,10.0,-100.00,WSW,250,1.0,3.0,70,0.00,,,-99.99,,2013-05-02 09:42:00,
2013-05-02 03:52:00,18.0,10.0,-100.00,NE,45,4.0,6.0,71,0.00,,,-99.99,,2013-05-02 09:52:00,
2013-05-02 04:02:00,18.0,10.0,-100.00,East,100,2.0,6.0,71,0.00,,,-99.99,,2013-05-02 10:02:00,
2013-05-02 04:12:00,17.0,10.0,-100.00,West,275,1.0,5.0,72,0.00,,,-99.99,,2013-05-02 10:12:00,
2013-05-02 04:22:00,17.0,10.0,-100.00,WSW,245,0.0,4.0,73,0.00,,,-99.99,,2013-05-02 10:22:00,
2013-05-02 04:33:00,16.0,10.0,-100.00,North,355,1.0,2.0,73,0.00,,,-99.99,,2013-05-02 10:33:00,
2013-05-02 04:42:00,16.0,10.0,-100.00,WNW,295,1.0,4.0,74,0.00,,,-99.99,,2013-05-02 10:42:00,
2013-05-02 04:52:00,16.0,10.0,-100.00,NW,315,0.0,4.0,75,0.00,,,-99.99,,2013-05-02 10:52:00,
2013-05-02 05:02:00,16.0,10.0,-100.00,NNE,20,3.0,7.0,75,0.00,,,-99.99,,2013-05-02 11:02:00,
2013-05-02 05:12:00,16.0,10.0,-100.00,North,5,0.0,4.0,74,0.00,,,-99.99,,2013-05-02 11:12:00,
2013-05-02 05:22:00,15.0,9.0,-100.00,SSE,150,0.0,1.0,75,0.00,,,-99.99,,2013-05-02 11:22:00,
2013-05-02 05:32:00,15.0,9.0,-100.00,NW,320,1.0,2.0,76,0.00,,,-99.99,,2013-05-02 11:32:00,
2013-05-02 05:42:00,15.0,9.0,-100.00,North,10,0.0,2.0,76,0.00,,,-99.99,,2013-05-02 11:42:00,
2013-05-02 05:52:00,14.0,9.0,-100.00,West,280,0.0,3.0,77,0.00,,,-99.99,,2013-05-02 11:52:00,
2013-05-02 06:01:00,15.0,9.0,-100.00,West,275,1.0,3.0,77,0.00,,,-99.99,,2013-05-02 12:01:00,
2013-05-02 06:11:00,15.0,9.0,-100.00,NNW,330,0.0,2.0,76,0.00,,,-99.99,,2013-05-02 12:11:00,
2013-05-02 06:21:00,14.0,8.0,-100.00,NNE,20,0.0,2.0,76,0.00,,,-99.99,,2013-05-02 12:21:00,
2013-05-02 06:32:00,14.0,8.0,-100.00,South,175,0.0,1.0,77,0.00,,,-99.99,,2013-05-02 12:32:00,
2013-05-02 06:42:00,14.0,8.0,-100.00,South,175,0.0,0.0,78,0.00,,,-99.99,,2013-05-02 12:42:00,
2013-05-02 06:52:00,14.0,8.0,-100.00,South,175,0.0,0.0,79,0.00,,,-99.99,,2013-05-02 12:52:00,
2013-05-02 07:01:00,15.0,10.0,-100.00,SSE,160,0.0,0.0,79,0.00,,,-99.99,,2013-05-02 13:01:00,
2013-05-02 07:11:00,17.0,11.0,-100.00,South,170,0.0,0.0,77,0.00,,,-99.99,,2013-05-02 13:11:00,
2013-05-02 07:21:00,18.0,11.0,-100.00,ESE,105,4.0,6.0,73,0.00,,,-99.99,,2013-05-02 13:21:00,
2013-05-02 07:32:00,19.0,11.0,-100.00,East,95,4.0,7.0,72,0.00,,,-99.99,,2013-05-02 13:32:00,
2013-05-02 07:42:00,20.0,12.0,-100.00,East,95,4.0,10.0,69,0.00,,,-99.99,,2013-05-02 13:42:00,
2013-05-02 07:52:00,21.0,12.0,-100.00,East,95,5.0,13.0,66,0.00,,,-99.99,,2013-05-02 13:52:00,
2013-05-02 08:02:00,22.0,11.0,-100.00,ENE,70,7.0,14.0,61,0.00,,,-99.99,,2013-05-02 14:02:00,
2013-05-02 08:11:00,23.0,10.0,-100.00,ENE,60,7.0,17.0,56,0.00,,,-99.99,,2013-05-02 14:11:00,
2013-05-02 08:22:00,24.0,9.0,-100.00,East,90,9.0,17.0,53,0.00,,,-99.99,,2013-05-02 14:22:00,
2013-05-02 08:32:00,24.0,9.0,-100.00,East,80,9.0,17.0,51,0.00,,,-99.99,,2013-05-02 14:32:00,
2013-05-02 08:42:00,25.0,8.0,-100.00,ENE,75,9.0,18.0,47,0.00,,,-99.99,,2013-05-02 14:42:00,
2013-05-02 08:52:00,26.0,8.0,-100.00,East,95,11.0,17.0,45,0.00,,,-99.99,,2013-05-02 14:52:00,
2013-05-02 09:02:00,26.0,7.0,-100.00,East,95,11.0,17.0,43,0.00,,,-99.99,,2013-05-02 15:02:00,
2013-05-02 09:12:00,27.0,7.0,-100.00,East,100,9.0,20.0,42,0.00,,,-99.99,,2013-05-02 15:12:00,
2013-05-02 09:22:00,28.0,7.0,-100.00,East,90,9.0,17.0,39,0.00,,,-99.99,,2013-05-02 15:22:00,
2013-05-02 09:33:00,28.0,6.0,-100.00,East,100,9.0,18.0,38,0.00,,,-99.99,,2013-05-02 15:33:00,
2013-05-02 09:43:00,29.0,6.0,-100.00,NE,55,10.0,19.0,36,0.00,,,-99.99,,2013-05-02 15:43:00,
2013-05-02 10:03:00,28.0,5.0,-100.00,East,100,4.0,16.0,35,0.00,,,-99.99,,2013-05-02 16:03:00,
2013-05-02 10:13:00,32.0,7.0,-100.00,East,100,7.0,14.0,35,0.00,,,-99.99,,2013-05-02 16:13:00,
2013-05-02 10:22:00,33.0,8.0,-100.00,East,90,12.0,18.0,34,0.00,,,-99.99,,2013-05-02 16:22:00,
2013-05-02 10:32:00,33.0,8.0,-100.00,ENE,75,6.0,18.0,34,0.00,,,-99.99,,2013-05-02 16:32:00,
2013-05-02 10:43:00,33.0,8.0,-100.00,ENE,60,8.0,20.0,33,0.00,,,-99.99,,2013-05-02 16:43:00,
2013-05-02 10:52:00,34.0,8.0,-100.00,NE,45,6.0,12.0,32,0.00,,,-99.99,,2013-05-02 16:52:00,
2013-05-02 11:02:00,36.0,9.0,-100.00,ESE,105,11.0,14.0,32,0.00,,,-99.99,,2013-05-02 17:02:00,
2013-05-02 11:12:00,35.0,8.0,-100.00,ENE,60,7.0,13.0,31,0.00,,,-99.99,,2013-05-02 17:12:00,
2013-05-02 11:22:00,35.0,7.0,-100.00,ENE,75,6.0,19.0,30,0.00,,,-99.99,,2013-05-02 17:22:00,
2013-05-02 11:32:00,36.0,8.0,-100.00,NE,50,8.0,16.0,30,0.00,,,-99.99,,2013-05-02 17:32:00,
2013-05-02 11:42:00,37.0,8.0,-100.00,East,80,8.0,15.0,30,0.00,,,-99.99,,2013-05-02 17:42:00,
2013-05-02 11:52:00,39.0,10.0,-100.00,ENE,75,7.0,16.0,29,0.00,,,-99.99,,2013-05-02 17:52:00,
2013-05-02 12:01:00,39.0,9.0,-100.00,ENE,65,11.0,24.0,29,0.00,,,-99.99,,2013-05-02 18:01:00,
2013-05-02 12:11:00,35.0,6.0,-100.00,ENE,70,11.0,18.0,28,0.00,,,-99.99,,2013-05-02 18:11:00,
2013-05-02 12:21:00,38.0,8.0,-100.00,NE,50,6.0,16.0,28,0.00,,,-99.99,,2013-05-02 18:21:00,
2013-05-02 12:32:00,37.0,7.0,-100.00,East,80,11.0,18.0,28,0.00,,,-99.99,,2013-05-02 18:32:00,
2013-05-02 12:42:00,38.0,8.0,-100.00,East,90,4.0,14.0,27,0.00,,,-99.99,,2013-05-02 18:42:00,
2013-05-02 12:52:00,39.0,8.0,-100.00,ESE,105,3.0,14.0,27,0.00,,,-99.99,,2013-05-02 18:52:00,
2013-05-02 13:01:00,41.0,10.0,-100.00,East,95,6.0,12.0,27,0.00,,,-99.99,,2013-05-02 19:01:00,
2013-05-02 13:11:00,43.0,11.0,-100.00,NE,55,7.0,14.0,27,0.00,,,-99.99,,2013-05-02 19:11:00,
2013-05-02 13:21:00,42.0,10.0,-100.00,East,85,4.0,13.0,26,0.00,,,-99.99,,2013-05-02 19:21:00,
2013-05-02 13:32:00,43.0,11.0,-100.00,South,180,3.0,7.0,26,0.00,,,-99.99,,2013-05-02 19:32:00,
2013-05-02 13:42:00,41.0,8.0,-100.00,South,190,7.0,11.0,25,0.00,,,-99.99,,2013-05-02 19:42:00,
2013-05-02 13:52:00,41.0,8.0,-100.00,ESE,120,3.0,15.0,25,0.00,,,-99.99,,2013-05-02 19:52:00,
2013-05-02 14:02:00,43.0,9.0,-100.00,SSW,200,8.0,16.0,24,0.00,,,-99.99,,2013-05-02 20:02:00,
2013-05-02 14:11:00,42.0,8.0,-100.00,South,180,2.0,14.0,23,0.00,,,-99.99,,2013-05-02 20:11:00,
2013-05-02 14:22:00,44.0,9.0,-100.00,ENE,75,6.0,13.0,24,0.00,,,-99.99,,2013-05-02 20:22:00,
2013-05-02 14:32:00,46.0,11.0,-100.00,SE,140,1.0,10.0,23,0.00,,,-99.99,,2013-05-02 20:32:00,
2013-05-02 14:41:00,47.0,11.0,-100.00,ESE,110,4.0,7.0,23,0.00,,,-99.99,,2013-05-02 20:41:00,
2013-05-02 14:52:00,45.0,9.0,-100.00,ESE,115,2.0,8.0,22,0.00,,,-99.99,,2013-05-02 20:52:00,
2013-05-02 15:01:00,44.0,8.0,-100.00,SSE,160,6.0,12.0,22,0.00,,,-99.99,,2013-05-02 21:01:00,
2013-05-02 15:11:00,43.0,7.0,-100.00,SE,145,2.0,13.0,22,0.00,,,-99.99,,2013-05-02 21:11:00,
2013-05-02 15:21:00,42.0,6.0,-100.00,North,10,2.0,16.0,21,0.00,,,-99.99,,2013-05-02 21:21:00,
2013-05-02 15:33:00,42.0,5.0,-100.00,SSW,205,11.0,16.0,21,0.00,,,-99.99,,2013-05-02 21:33:00,
2013-05-02 15:42:00,44.0,7.0,-100.00,SE,125,3.0,12.0,21,0.00,,,-99.99,,2013-05-02 21:42:00,
2013-05-02 15:53:00,44.0,6.0,-100.00,SSW,200,9.0,12.0,21,0.00,,,-99.99,,2013-05-02 21:53:00,
2013-05-02 16:02:00,43.0,6.0,-100.00,SSW,200,6.0,16.0,21,0.00,,,-99.99,,2013-05-02 22:02:00,
2013-05-02 16:12:00,42.0,5.0,-100.00,SW,220,6.0,14.0,21,0.00,,,-99.99,,2013-05-02 22:12:00,
2013-05-02 16:22:00,43.0,6.0,-100.00,NE,45,5.0,14.0,20,0.00,,,-99.99,,2013-05-02 22:22:00,
2013-05-02 16:32:00,44.0,7.0,-100.00,ENE,75,8.0,16.0,21,0.00,,,-99.99,,2013-05-02 22:32:00,
2013-05-02 16:42:00,46.0,8.0,-100.00,NE,45,5.0,12.0,20,0.00,,,-99.99,,2013-05-02 22:42:00,
2013-05-02 16:52:00,44.0,5.0,-100.00,NE,40,5.0,11.0,20,0.00,,,-99.99,,2013-05-02 22:52:00,
2013-05-02 17:02:00,42.0,4.0,-100.00,NE,40,7.0,15.0,19,0.00,,,-99.99,,2013-05-02 23:02:00,
2013-05-02 17:11:00,45.0,7.0,-100.00,South,170,2.0,9.0,20,0.00,,,-99.99,,2013-05-02 23:11:00,
2013-05-02 17:22:00,45.0,7.0,-100.00,East,80,4.0,13.0,20,0.00,,,-99.99,,2013-05-02 23:22:00,
2013-05-02 17:32:00,44.0,5.0,-100.00,SSE,160,2.0,11.0,19,0.00,,,-99.99,,2013-05-02 23:32:00,
2013-05-02 17:42:00,45.0,6.0,-100.00,East,80,4.0,12.0,19,0.00,,,-99.99,,2013-05-02 23:42:00,
2013-05-02 17:51:00,45.0,7.0,-100.00,ENE,75,6.0,11.0,20,0.00,,,-99.99,,2013-05-02 23:51:00,
2013-05-02 18:01:00,45.0,7.0,-100.00,East,80,4.0,11.0,20,0.00,,,-99.99,,2013-05-03 00:01:00,
2013-05-02 18:11:00,44.0,6.0,-100.00,ENE,70,2.0,7.0,20,0.00,,,-99.99,,2013-05-03 00:11:00,
2013-05-02 18:21:00,44.0,5.0,-100.00,East,85,2.0,12.0,20,0.00,,,-99.99,,2013-05-03 00:21:00,
2013-05-02 18:31:00,44.0,6.0,-100.00,NNE,15,2.0,7.0,20,0.00,,,-99.99,,2013-05-03 00:31:00,
2013-05-02 18:42:00,42.0,4.0,-100.00,ENE,65,5.0,9.0,20,0.00,,,-99.99,,2013-05-03 00:42:00,
2013-05-02 18:52:00,40.0,2.0,-100.00,NNE,30,1.0,4.0,20,0.00,,,-99.99,,2013-05-03 00:52:00,
2013-05-02 19:01:00,39.0,2.0,-100.00,North,10,0.0,2.0,21,0.00,,,-99.99,,2013-05-03 01:01:00,
2013-05-02 19:11:00,38.0,2.0,-100.00,NNE,25,3.0,6.0,21,0.00,,,-99.99,,2013-05-03 01:11:00,
2013-05-02 19:21:00,36.0,2.0,-100.00,North,0,0.0,2.0,23,0.00,,,-99.99,,2013-05-03 01:21:00,
2013-05-02 19:31:00,36.0,2.0,-100.00,North,5,1.0,2.0,23,0.00,,,-99.99,,2013-05-03 01:31:00,
2013-05-02 19:42:00,35.0,2.0,-100.00,NW,315,0.0,5.0,24,0.00,,,-99.99,,2013-05-03 01:42:00,
2013-05-02 19:52:00,35.0,3.0,-100.00,NW,310,0.0,2.0,25,0.00,,,-99.99,,2013-05-03 01:52:00,
2013-05-02 20:01:00,34.0,3.0,-100.00,NNW,330,0.0,2.0,26,0.00,,,-99.99,,2013-05-03 02:01:00,
2013-05-02 20:11:00,33.0,3.0,-100.00,NNW,345,0.0,2.0,27,0.00,,,-99.99,,2013-05-03 02:11:00,
2013-05-02 20:21:00,31.0,4.0,-100.00,WNW,290,0.0,1.0,30,0.00,,,-99.99,,2013-05-03 02:21:00,
2013-05-02 20:32:00,31.0,4.0,-100.00,WNW,290,2.0,3.0,30,0.00,,,-99.99,,2013-05-03 02:32:00,
2013-05-02 20:42:00,31.0,4.0,-100.00,NNE,15,0.0,2.0,31,0.00,,,-99.99,,2013-05-03 02:42:00,
2013-05-02 20:52:00,29.0,5.0,-100.00,South,185,0.0,2.0,34,0.00,,,-99.99,,2013-05-03 02:52:00,
2013-05-02 21:01:00,28.0,5.0,-100.00,West,280,0.0,0.0,36,0.00,,,-99.99,,2013-05-03 03:01:00,
2013-05-02 21:11:00,29.0,7.0,-100.00,SW,235,0.0,3.0,38,0.00,,,-99.99,,2013-05-03 03:11:00,
2013-05-02 21:21:00,29.0,7.0,-100.00,WSW,255,0.0,2.0,40,0.00,,,-99.99,,2013-05-03 03:21:00,
2013-05-02 21:33:00,28.0,8.0,-100.00,SW,225,1.0,4.0,43,0.00,,,-99.99,,2013-05-03 03:33:00,
2013-05-02 21:42:00,29.0,10.0,-100.00,SW,215,2.0,6.0,44,0.00,,,-99.99,,2013-05-03 03:42:00,
2013-05-02 21:52:00,29.0,11.0,-100.00,WSW,250,1.0,6.0,46,0.00,,,-99.99,,2013-05-03 03:52:00,
2013-05-02 22:03:00,29.0,11.0,-100.00,WSW,245,1.0,4.0,47,0.00,,,-99.99,,2013-05-03 04:03:00,
2013-05-02 22:12:00,28.0,11.0,-100.00,SW,215,1.0,4.0,48,0.00,,,-99.99,,2013-05-03 04:12:00,
2013-05-02 22:22:00,28.0,11.0,-100.00,WSW,250,0.0,4.0,49,0.00,,,-99.99,,2013-05-03 04:22:00,
2013-05-02 22:32:00,27.0,11.0,-100.00,SSW,200,0.0,3.0,50,0.00,,,-99.99,,2013-05-03 04:32:00,
2013-05-02 22:42:00,26.0,11.0,-100.00,North,10,0.0,0.0,51,0.00,,,-99.99,,2013-05-03 04:42:00,
2013-05-02 22:52:00,26.0,11.0,-100.00,NNW,330,0.0,3.0,52,0.00,,,-99.99,,2013-05-03 04:52:00,
2013-05-02 23:02:00,26.0,11.0,-100.00,WSW,255,1.0,4.0,53,0.00,,,-99.99,,2013-05-03 05:02:00,
2013-05-02 23:12:00,25.0,11.0,-100.00,SW,220,0.0,0.0,54,0.00,,,-99.99,,2013-05-03 05:12:00,
2013-05-02 23:21:00,24.0,11.0,-100.00,South,170,0.0,0.0,55,0.00,,,-99.99,,2013-05-03 05:21:00,
2013-05-02 23:32:00,24.0,11.0,-100.00,West,270,0.0,0.0,57,0.00,,,-99.99,,2013-05-03 05:32:00,
2013-05-02 23:42:00,24.0,12.0,-100.00,West,265,0.0,0.0,59,0.00,,,-99.99,,2013-05-03 05:42:00,
2013-05-02 23:52:00,25.0,12.0,-100.00,WNW,300,0.0,2.0,58,0.00,,,-99.99,,2013-05-03 05:52:00,